Location: Paddlesworth
(51.1000°N, 1.1333°E)
Time: 09:07:23
(UTC+00:00)

Cosmos 1908 Rocket - Pass Details

Date: 11 May 2021
Orbit: 606 x 632 km, 82.5° (Epoch: 16 June)

Event Time Altitude Azimuth Distance (km) Brightness Sun altitude
Rises 23:11:56 0° 349° (N) 2,941 8.7 -20.2°
Reaches altitude 10° 23:14:11 10° 349° (N) 2,028 7.4 -20.3°
Maximum altitude 23:18:42 88° 260° (W) 640 3.5 -20.4°
Enters shadow 23:19:45 53° 174° (S) 781 3.6 -20.4°
